Location: Paderno d�Adda
(45.6667°N, 9.4333°E)
Time: 14:01:28
(UTC+00:00)

Lacrosse 4 Rocket - Pass Details

Date: 19 September 2020
Orbit: 543 x 615 km, 68.0° (Epoch: 29 October)

Event Time Altitude Azimuth Distance (km) Brightness Sun altitude
Rises 21:03:50 0° 332° (NNW) 2,716 5.8 -35.0°
Reaches altitude 10° 21:06:04 10° 337° (NNW) 1,824 4.7 -35.2°
Enters shadow 21:06:33 13° 338° (NNW) 1,633 4.4 -35.3°
